Orbital Elements
Epoch 2009 Mar. 30.0 TT = JDT 2454920.5
T 2009 Mar. 21.70412 TT MPCW
q 1.5511571 (2000.0) P Q
n 0.14686613 Peri. 185.01941 +0.99807855 -0.00302852
a 3.5578553 Node 173.99677 -0.01063637 +0.97560423
e 0.5640190 Incl. 36.28088 -0.06104156 -0.21951586
P 6.71
From 55 observations 2002 Aug. 17-2015 Aug. 10, mean residual 0".6.
|